Location: Bridgewater
(44.3670°N, 64.5170°W)
Time: 19:59:37
(UTC-04:00)

Amateur Radio Satellites - All Passes

Search period start: 21 December 2014 19:29
Search period end: 22 December 2014 19:29
Location: Bridgewater, 44.3670°N, 64.5170°W

Satellite Date Start Highest point End Downlink Frequencies (MHz)
Time Altitude Azimuth
PRISM 21 Dec 19:31:08 19:34:44 29° 293° (WNW) 19:38:17 437.425
GOMX 1 21 Dec 19:31:16 19:34:10 19° 64° (ENE) 19:37:06 467.674
STRAND 1 21 Dec 19:33:33 19:38:40 79° 286° (WNW) 19:43:44 437.568
CUTE-I 21 Dec 19:37:12 19:37:41 10° 274° (W) 19:38:09 437.470
CANX-2 21 Dec 19:41:16 19:45:06 33° 69° (ENE) 19:48:59 2200.000
DOVE 4 21 Dec 19:51:11 19:54:25 22° 66° (ENE) 19:57:42 437.250
COMPASS 1 21 Dec 19:59:54 20:03:44 35° 70° (ENE) 20:07:37 437.405
HO-68 21 Dec 20:03:17 20:10:26 76° 70° (ENE) 20:17:37 435.675
BEESAT 3 21 Dec 20:04:16 20:06:09 13° 33° (NNE) 20:08:01 437.485
RS-15 21 Dec 20:05:14 20:16:25 67° 49° (NE) 20:28:05 29.354- 29.394
SEEDS 21 Dec 20:06:41 20:10:47 49° 72° (ENE) 20:14:55 437.485
CINEMA 3 21 Dec 20:08:29 20:11:37 21° 65° (ENE) 20:14:50 145.822/145.860
DELFI C3 21 Dec 20:10:52 20:13:40 18° 64° (ENE) 20:16:28 145.870
CUTE 1.7 + AOD 2 21 Dec 20:11:29 20:15:42 64° 74° (ENE) 20:19:58 437.475
FUNcube-1 21 Dec 20:18:14 20:19:59 12° 60° (ENE) 20:21:46 145.935
UWE-3 21 Dec 20:20:58 20:23:30 16° 62° (ENE) 20:26:04 435.000/436.395/437.385
DANDE 21 Dec 20:23:12 20:30:51 71° 78° (ENE) 20:39:32 436.750
DX 1 21 Dec 20:31:47 20:35:32 29° 67° (ENE) 20:39:18 434.975-435.025
ISS 21 Dec 20:33:22 20:36:00 23° 224° (SW) 20:38:37 145.825
CUBESAT XI-V 21 Dec 20:37:07 20:39:53 16° 298° (WNW) 20:42:38 437.345
AISAT 21 Dec 20:40:48 20:43:03 14° 60° (ENE) 20:45:19 437.250
SO-50 21 Dec 20:42:02 20:46:17 41° 117° (ESE) 20:50:41 436.795
HUMSAT D 21 Dec 20:43:32 20:45:36 14° 61° (ENE) 20:47:40 437.325/437.525
BEESAT 2 21 Dec 20:44:19 20:47:35 21° 41° (NE) 20:50:50 435.950
BRITE-PL 21 Dec 20:47:16 20:51:17 47° 261° (W) 20:55:18 437.365/2234.400
Oscar 11 21 Dec 20:51:41 20:55:56 58° 73° (ENE) 21:00:14 145.826/435.025
AAUSAT CUBESAT 2 21 Dec 20:58:55 21:03:05 60° 259° (W) 21:07:17 437.432
UKube-1 21 Dec 21:01:00 21:05:14 57° 72° (ENE) 21:09:30 .
PCSat 21 Dec 21:05:37 21:09:29 19° 39° (NE) 21:13:19 145.827
GOMX 1 21 Dec 21:08:09 21:12:03 39° 262° (W) 21:16:00 467.674
CUSAT 1 21 Dec 21:09:19 21:16:52 58° 266° (W) 21:25:09 437.405
STRAND 1 21 Dec 21:15:14 21:17:00 12° 304° (NW) 21:18:46 437.568
CANX-2 21 Dec 21:17:39 21:21:06 24° 266° (W) 21:24:35 2200.000
CUBEBUG 2 21 Dec 21:19:41 21:23:51 72° 75° (ENE) 21:28:09 437.445
ZACube-1 21 Dec 21:25:13 21:29:20 60° 73° (ENE) 21:33:35 437.345
DOVE 4 21 Dec 21:28:17 21:32:02 33° 264° (W) 21:35:52 437.250
VELOX 1 21 Dec 21:31:07 21:35:16 41° 70° (ENE) 21:39:25 145.980
COMPASS 1 21 Dec 21:36:15 21:39:33 22° 267° (W) 21:42:53 437.405
ESTCUBE 1 21 Dec 21:38:44 21:42:12 22° 65° (ENE) 21:45:40 437.505/2401.250
BEESAT 3 21 Dec 21:40:56 21:45:07 68° 53° (NE) 21:49:14 437.485
SEEDS 21 Dec 21:44:14 21:46:53 16° 269° (W) 21:49:34 437.485
DELFI C3 21 Dec 21:44:40 21:48:36 43° 261° (W) 21:52:35 145.870
CINEMA 3 21 Dec 21:44:44 21:48:36 37° 263° (W) 21:52:36 145.822/145.860
50 SAT 21 Dec 21:45:29 21:49:19 46° 72° (ENE) 21:53:14 437.505
CUTE 1.7 + AOD 2 21 Dec 21:50:15 21:52:04 12° 271° (W) 21:53:53 437.475
FUNcube-1 21 Dec 21:51:34 21:55:44 72° 258° (WSW) 22:00:02 145.935
HO-68 21 Dec 21:53:34 21:58:50 22° 269° (W) 22:04:08 435.675
AIST 2 21 Dec 21:54:33 21:58:40 42° 49° (NE) 22:02:44 435.215
UWE-3 21 Dec 21:55:30 21:59:36 54° 260° (W) 22:03:50 435.000/436.395/437.385
UNISAT 6 21 Dec 21:55:38 21:58:41 17° 91° (E) 22:01:44 437.425
POLYITAN 1 21 Dec 22:05:44 22:07:28 12° 89° (E) 22:09:12 437.675
NANOSAT C BR1 21 Dec 22:06:52 22:08:36 12° 90° (E) 22:10:20 145.865
DANDE 21 Dec 22:07:30 22:13:55 29° 273° (W) 22:20:55 436.750
DX 1 21 Dec 22:08:01 22:11:44 28° 264° (W) 22:15:29 434.975-435.025
YUBILEINY 21 Dec 22:13:45 22:18:50 17° 75° (ENE) 22:23:54 435.215
AISAT 21 Dec 22:14:45 22:19:08 69° 258° (WSW) 22:23:34 437.250
CUBEBUG 1 21 Dec 22:16:29 22:20:40 46° 71° (ENE) 22:24:50 437.445
HUMSAT D 21 Dec 22:16:47 22:20:53 63° 259° (W) 22:25:04 437.325/437.525
RS-15 21 Dec 22:18:08 22:28:17 41° 251° (WSW) 22:38:52 29.354- 29.394
QB50P1 21 Dec 22:20:32 22:23:24 17° 92° (E) 22:26:16 145.935-145.965
BEESAT 2 21 Dec 22:22:02 22:26:08 53° 240° (WSW) 22:30:10 435.950
SO-50 21 Dec 22:22:55 22:26:57 30° 317° (NW) 22:31:07 436.795
ANTELSAT 21 Dec 22:26:45 22:31:03 34° 96° (E) 22:35:20 437.575/2403.000
Oscar 11 21 Dec 22:30:10 22:32:29 14° 270° (W) 22:34:49 145.826/435.025
UKube-1 21 Dec 22:39:24 22:41:45 14° 269° (W) 22:44:07 .
PCSat 21 Dec 22:48:12 22:53:40 90° 241° (WSW) 22:59:05 145.827
POPSAT HIP 1 21 Dec 22:48:37 22:52:31 34° 97° (E) 22:56:25 437.405
CUSAT 1 21 Dec 22:56:10 22:58:39 12° 283° (WNW) 23:01:12 437.405
CUBEBUG 2 21 Dec 23:00:16 23:01:07 11° 273° (W) 23:01:59 437.445
TIGRISAT 21 Dec 23:01:13 23:05:56 73° 102° (ESE) 23:10:39 435.000
ZACube-1 21 Dec 23:04:14 23:06:09 13° 271° (W) 23:08:06 437.345
VELOX 1 21 Dec 23:08:44 23:12:01 20° 267° (W) 23:15:19 145.980
BUGSAT 1 21 Dec 23:08:54 23:12:48 44° 99° (E) 23:16:42 437.445
TISAT 1 21 Dec 23:12:12 23:16:13 46° 71° (ENE) 23:20:15 437.305
ESTCUBE 1 21 Dec 23:14:31 23:18:49 42° 262° (W) 23:23:08 437.505/2401.250
DUCHIFAT 1 21 Dec 23:15:45 23:20:00 68° 102° (ESE) 23:24:14 145.980
SPROUT 21 Dec 23:19:30 23:23:38 51° 72° (ENE) 23:27:48 437.525
BEESAT 3 21 Dec 23:20:47 23:22:45 13° 251° (WSW) 23:24:42 437.485
50 SAT 21 Dec 23:22:26 23:24:48 15° 269° (W) 23:27:13 437.505
BEESAT 21 Dec 23:23:23 23:25:23 13° 58° (ENE) 23:27:23 436.000
QB50P2 21 Dec 23:30:15 23:34:32 83° 285° (WNW) 23:38:49 145.880/145.840
UNISAT 6 21 Dec 23:31:11 23:35:48 57° 288° (WNW) 23:40:25 437.425
AIST 2 21 Dec 23:33:41 23:37:03 23° 247° (WSW) 23:40:23 435.215
O/OREOS (USA 219) 21 Dec 23:34:13 23:36:42 15° 99° (E) 23:39:12 437.305
AUBIESAT-1 21 Dec 23:34:51 23:36:27 12° 51° (NE) 23:38:03 437.475
POLYITAN 1 21 Dec 23:39:34 23:43:50 66° 286° (WNW) 23:48:06 437.675
NANOSAT C BR1 21 Dec 23:40:40 23:44:54 65° 286° (WNW) 23:49:07 145.865
CUBEBUG 1 21 Dec 23:54:21 23:57:17 18° 268° (W) 00:00:13 437.445
QB50P1 21 Dec 23:55:27 23:59:31 45° 289° (WNW) 00:03:35 145.935-145.965
M-CUBED/EXP-1 PRIME 21 Dec 23:59:09 00:02:42 20° 57° (ENE) 00:06:14 437.505
ANTELSAT 22 Dec 00:03:42 00:07:44 29° 293° (WNW) 00:11:46 437.575/2403.000
YUBILEINY 22 Dec 00:05:28 00:14:12 83° 96° (E) 00:22:57 435.215
POPSAT HIP 1 22 Dec 00:24:51 00:28:15 24° 294° (WNW) 00:31:39 437.405
Oscar 19 22 Dec 00:31:32 00:33:49 13° 88° (E) 00:36:05 437.125/150
SWISSCUBE 22 Dec 00:33:05 00:37:47 58° 72° (ENE) 00:42:30 437.505
PCSat 22 Dec 00:33:48 00:36:15 13° 257° (WSW) 00:38:42 145.827
ITUPSAT 1 22 Dec 00:34:08 00:38:49 54° 71° (ENE) 00:43:30 437.325
TIGRISAT 22 Dec 00:39:32 00:42:06 15° 299° (WNW) 00:44:41 435.000
BUGSAT 1 22 Dec 00:45:19 00:47:59 17° 296° (WNW) 00:50:39 437.445
TISAT 1 22 Dec 00:49:37 00:52:18 16° 268° (W) 00:55:00 437.305
DUCHIFAT 1 22 Dec 00:53:19 00:55:20 13° 299° (WNW) 00:57:20 145.980
SPROUT 22 Dec 00:57:30 01:00:02 15° 269° (W) 01:02:35 437.525
BEESAT 22 Dec 00:57:42 01:02:30 89° 256° (WSW) 01:07:20 436.000
AUBIESAT-1 22 Dec 01:05:43 01:10:32 71° 69° (ENE) 01:15:25 437.475
O/OREOS (USA 219) 22 Dec 01:11:12 01:15:36 58° 297° (WNW) 01:20:01 437.305
M-CUBED/EXP-1 PRIME 22 Dec 01:32:25 01:37:14 61° 254° (WSW) 01:42:07 437.505
STARS 22 Dec 01:33:48 01:37:39 31° 68° (ENE) 01:41:32 437.465
KKS-1 22 Dec 01:39:55 01:44:13 53° 72° (ENE) 01:48:33 437.445
VERMONT LUNAR 22 Dec 01:57:44 01:58:53 11° 149° (SSE) 02:00:03 437.305
YUBILEINY 22 Dec 02:05:27 02:12:06 24° 298° (WNW) 02:18:47 435.215
Oscar 19 22 Dec 02:08:34 02:13:48 84° 285° (WNW) 02:19:00 437.125/150
SWISSCUBE 22 Dec 02:12:56 02:16:01 17° 269° (W) 02:19:06 437.505
ITUPSAT 1 22 Dec 02:13:45 02:17:01 18° 268° (W) 02:20:18 437.325
AIST 1 22 Dec 02:14:10 02:15:44 12° 66° (ENE) 02:17:18
PHONESAT 2.4 22 Dec 02:18:27 02:19:26 11° 149° (SSE) 02:20:26 2401.200-2431.200
ITAMSAT 1 22 Dec 02:27:25 02:32:30 56° 101° (E) 02:37:35 435.822/435.867
Gurwin Techsat 1B 22 Dec 02:30:42 02:35:40 38° 97° (E) 02:40:35 435.225
BEESAT 22 Dec 02:40:53 02:41:02 10° 273° (W) 02:41:10 436.000
AUBIESAT-1 22 Dec 02:43:02 02:45:54 16° 265° (W) 02:48:47 437.475
MOZHAYETS 4 22 Dec 03:01:19 03:03:52 15° 61° (ENE) 03:06:25
HORYU 2 22 Dec 03:01:25 03:05:20 28° 96° (E) 03:09:12 437.375
STARS 22 Dec 03:10:26 03:14:07 26° 265° (W) 03:17:51 437.465
KKS-1 22 Dec 03:18:27 03:21:11 16° 269° (W) 03:23:56 437.445
SO-50 22 Dec 03:32:19 03:35:01 15° 31° (NNE) 03:37:44 436.795
VERMONT LUNAR 22 Dec 03:33:23 03:36:34 32° 165° (SSE) 03:39:44 437.305
AO-7 22 Dec 03:48:51 03:56:25 36° 97° (E) 04:03:54 29.400- 29.500
AIST 1 22 Dec 03:49:39 03:53:55 68° 264° (W) 03:58:08
Oscar 19 22 Dec 03:50:04 03:52:19 13° 304° (WNW) 03:54:35 437.125/150
PHONESAT 2.4 22 Dec 03:54:12 03:57:27 31° 164° (SSE) 04:00:42 2401.200-2431.200
GONETS M04 22 Dec 04:07:39 04:13:44 21° 77° (ENE) 04:19:48
ITAMSAT 1 22 Dec 04:07:47 04:11:36 21° 299° (WNW) 04:15:24 435.822/435.867
Gurwin Techsat 1B 22 Dec 04:10:55 04:15:30 30° 295° (WNW) 04:20:04 435.225
JAS-2 22 Dec 04:35:16 04:39:51 26° 92° (E) 04:44:10 435.910
MOZHAYETS 4 22 Dec 04:35:53 04:40:31 71° 258° (WSW) 04:45:11
HORYU 2 22 Dec 04:37:59 04:41:59 31° 293° (WNW) 04:45:57 437.375
PRISM 22 Dec 04:48:10 04:51:41 26° 67° (ENE) 04:55:11 437.425
VERMONT LUNAR 22 Dec 05:11:10 05:14:33 44° 182° (S) 05:17:56 437.305
SO-50 22 Dec 05:11:41 05:16:32 62° 52° (NE) 05:21:24 436.795
STRAND 1 22 Dec 05:13:20 05:17:23 25° 63° (ENE) 05:21:27 437.568
PHONESAT 2.4 22 Dec 05:32:19 05:35:48 45° 181° (S) 05:39:17 2401.200-2431.200
Cubesat XI-IV 22 Dec 05:35:12 05:38:55 19° 91° (E) 05:42:38 437.490
AO-7 22 Dec 05:41:23 05:49:30 57° 296° (WNW) 05:57:34 29.400- 29.500
GONETS M04 22 Dec 06:00:31 06:09:23 86° 278° (W) 06:18:17
CUBESAT XI-V 22 Dec 06:03:16 06:07:55 73° 75° (ENE) 06:12:34 437.345
CUTE-I 22 Dec 06:07:11 06:12:04 36° 97° (E) 06:16:56 437.470
JAS-2 22 Dec 06:19:55 06:25:15 43° 293° (WNW) 06:30:10 435.910
PRISM 22 Dec 06:23:22 06:27:06 30° 263° (W) 06:30:51 437.425
VERMONT LUNAR 22 Dec 06:49:29 06:52:29 26° 199° (SSW) 06:55:29 437.305
STRAND 1 22 Dec 06:51:24 06:56:18 46° 261° (W) 07:01:13 437.568
SO-50 22 Dec 06:53:11 06:56:40 20° 249° (WSW) 07:00:09 436.795
PHONESAT 2.4 22 Dec 07:10:58 07:14:07 28° 198° (SSW) 07:17:17 2401.200-2431.200
Cubesat XI-IV 22 Dec 07:14:10 07:19:25 60° 289° (WNW) 07:24:38 437.490
HO-68 22 Dec 07:32:45 07:34:54 11° 85° (E) 07:37:01 435.675
AO-7 22 Dec 07:36:16 07:40:30 15° 318° (NW) 07:44:45 29.400- 29.500
CUBESAT XI-V 22 Dec 07:43:53 07:45:52 13° 272° (W) 07:47:51 437.345
CUTE-I 22 Dec 07:47:23 07:52:04 33° 294° (WNW) 07:56:44 437.470
GONETS M04 22 Dec 08:01:28 08:07:38 20° 301° (WNW) 08:13:49
MaSat-1 22 Dec 08:40:39 08:42:54 74° 117° (ESE) 08:45:06 437.345
AAUSAT CUBESAT 2 22 Dec 08:41:43 08:44:49 20° 92° (E) 08:47:54 437.432
CUSAT 1 22 Dec 08:41:47 08:44:43 20° 82° (E) 08:48:16 437.405
BRITE-PL 22 Dec 08:49:02 08:53:35 44° 99° (E) 08:58:27 437.365/2234.400
QB50P2 22 Dec 08:53:23 08:53:53 10° 59° (ENE) 08:54:24 145.880/145.840
UNISAT 6 22 Dec 08:56:55 08:59:55 18° 62° (ENE) 09:02:58 437.425
CANX-2 22 Dec 09:00:38 09:04:53 53° 100° (E) 09:09:05 2200.000
POLYITAN 1 22 Dec 09:01:24 09:03:14 13° 61° (ENE) 09:05:05 437.675
NANOSAT C BR1 22 Dec 09:02:05 09:03:54 13° 61° (ENE) 09:05:44 145.865
GOMX 1 22 Dec 09:06:59 09:11:39 48° 99° (E) 09:16:35 467.674
CUBEBUG 2 22 Dec 09:10:26 09:13:08 15° 90° (E) 09:15:50 437.445
ZACube-1 22 Dec 09:14:37 09:16:05 11° 88° (E) 09:17:33 437.345
QB50P1 22 Dec 09:15:42 09:18:29 17° 63° (ENE) 09:21:16 145.935-145.965
HO-68 22 Dec 09:16:44 09:23:53 68° 104° (ESE) 09:30:59 435.675
COMPASS 1 22 Dec 09:17:32 09:21:44 53° 100° (E) 09:25:53 437.405
DELFI C3 22 Dec 09:24:08 09:27:26 23° 94° (E) 09:30:42 145.870
DOVE 4 22 Dec 09:24:25 09:29:08 54° 100° (E) 09:34:06 437.250
SEEDS 22 Dec 09:25:25 09:29:44 78° 102° (ESE) 09:34:00 437.485
ANTELSAT 22 Dec 09:27:46 09:31:47 35° 69° (ENE) 09:35:54 437.575/2403.000
CUTE 1.7 + AOD 2 22 Dec 09:31:11 09:35:31 79° 284° (WNW) 09:39:49 437.475
CINEMA 3 22 Dec 09:37:12 09:41:46 44° 98° (E) 09:46:28 145.822/145.860
FUNcube-1 22 Dec 09:39:11 09:42:36 21° 93° (E) 09:46:02 145.935
O/OREOS (USA 219) 22 Dec 09:40:19 09:44:34 39° 60° (ENE) 09:48:49 437.305
DANDE 22 Dec 09:40:43 09:44:21 65° 96° (E) 09:49:20 436.750
POPSAT HIP 1 22 Dec 09:43:28 09:47:13 32° 69° (ENE) 09:50:59 437.405
UWE-3 22 Dec 09:44:00 09:47:57 28° 95° (E) 09:51:56 435.000/436.395/437.385
DX 1 22 Dec 09:54:12 09:58:21 42° 99° (E) 10:02:28 434.975-435.025
HUMSAT D 22 Dec 10:00:30 10:03:41 20° 93° (E) 10:06:51 437.325/437.525
BUGSAT 1 22 Dec 10:00:56 10:04:44 39° 71° (ENE) 10:08:31 437.445
TIGRISAT 22 Dec 10:01:44 10:06:05 77° 75° (ENE) 10:10:36 435.000
AISAT 22 Dec 10:05:04 10:08:22 20° 93° (E) 10:11:40 437.250
DUCHIFAT 1 22 Dec 10:10:05 10:14:13 62° 74° (ENE) 10:18:24 145.980
Oscar 11 22 Dec 10:13:31 10:17:55 86° 284° (WNW) 10:22:16 145.826/435.025
YUBILEINY 22 Dec 10:13:47 10:22:03 45° 72° (ENE) 10:30:15 435.215
AAUSAT CUBESAT 2 22 Dec 10:16:40 10:20:38 39° 289° (WNW) 10:24:34 437.432
UKube-1 22 Dec 10:23:12 10:27:34 85° 104° (ESE) 10:31:54 .
CUSAT 1 22 Dec 10:23:32 10:27:15 37° 291° (WNW) 10:32:10 437.405
QB50P2 22 Dec 10:24:54 10:29:07 88° 254° (WSW) 10:33:22 145.880/145.840
BRITE-PL 22 Dec 10:28:11 10:31:53 24° 294° (WNW) 10:35:49 437.365/2234.400
UNISAT 6 22 Dec 10:32:02 10:36:18 50° 261° (W) 10:40:42 437.425
RS-15 22 Dec 10:32:45 10:41:50 32° 105° (ESE) 10:50:53 29.354- 29.394
POLYITAN 1 22 Dec 10:34:26 10:38:37 70° 258° (WSW) 10:42:51 437.675
NANOSAT C BR1 22 Dec 10:35:03 10:39:14 70° 258° (WSW) 10:43:27 145.865
CANX-2 22 Dec 10:37:41 10:40:25 17° 297° (WNW) 10:43:08 2200.000
CUBEBUG 2 22 Dec 10:45:36 10:50:12 63° 286° (WNW) 10:54:53 437.445
GOMX 1 22 Dec 10:45:52 10:49:30 22° 294° (WNW) 10:53:19 467.674
ZACube-1 22 Dec 10:48:25 10:52:58 79° 285° (WNW) 10:57:34 437.345
QB50P1 22 Dec 10:49:58 10:54:01 47° 261° (W) 10:58:07 145.935-145.965
COMPASS 1 22 Dec 10:54:26 10:57:02 16° 297° (WNW) 10:59:37 437.405
VELOX 1 22 Dec 10:56:30 11:00:55 67° 102° (ESE) 11:05:19 145.980
50 SAT 22 Dec 10:59:02 11:03:11 66° 101° (ESE) 11:07:19 437.505
DELFI C3 22 Dec 10:59:04 11:02:44 32° 291° (WNW) 11:06:23 145.870
DOVE 4 22 Dec 11:03:07 11:06:34 20° 296° (WNW) 11:10:10 437.250
SEEDS 22 Dec 11:03:23 11:04:56 12° 300° (WNW) 11:06:29 437.485
ANTELSAT 22 Dec 11:05:06 11:08:40 24° 267° (W) 11:12:19 437.575/2403.000
HO-68 22 Dec 11:05:17 11:11:02 27° 303° (WNW) 11:16:46 435.675
ESTCUBE 1 22 Dec 11:05:45 11:09:53 35° 97° (E) 11:13:59 437.505/2401.250
FUNcube-1 22 Dec 11:14:49 11:19:07 43° 289° (WNW) 11:23:27 145.935
CINEMA 3 22 Dec 11:14:59 11:18:43 24° 294° (WNW) 11:22:33 145.822/145.860
POPSAT HIP 1 22 Dec 11:19:47 11:23:10 23° 266° (W) 11:26:34 437.405
O/OREOS (USA 219) 22 Dec 11:20:12 11:23:44 23° 258° (WSW) 11:27:16 437.305
UWE-3 22 Dec 11:20:22 11:24:29 33° 291° (WNW) 11:28:40 435.000/436.395/437.385
DANDE 22 Dec 11:27:01 11:28:55 13° 305° (NW) 11:31:03 436.750
DX 1 22 Dec 11:31:07 11:34:18 20° 296° (WNW) 11:37:30 434.975-435.025
HUMSAT D 22 Dec 11:35:33 11:39:38 41° 289° (WNW) 11:43:43 437.325/437.525
BUGSAT 1 22 Dec 11:37:33 11:40:23 18° 267° (W) 11:43:13 437.445
CUBEBUG 1 22 Dec 11:40:02 11:44:23 77° 103° (ESE) 11:48:43 437.445
AISAT 22 Dec 11:40:59 11:45:10 41° 290° (WNW) 11:49:21 437.250
TIGRISAT 22 Dec 11:42:24 11:43:27 11° 273° (W) 11:44:30 435.000
DUCHIFAT 1 22 Dec 11:48:46 11:50:30 12° 270° (W) 11:52:15 145.980
Oscar 19 22 Dec 11:49:17 11:53:18 23° 63° (ENE) 11:57:19 437.125/150
Oscar 11 22 Dec 11:53:05 11:53:20 10° 302° (WNW) 11:53:35 145.826/435.025
UKube-1 22 Dec 12:01:45 12:03:04 11° 301° (WNW) 12:04:23 .
ITAMSAT 1 22 Dec 12:10:36 12:13:26 15° 58° (ENE) 12:16:17 435.822/435.867
YUBILEINY 22 Dec 12:10:47 12:18:48 44° 273° (W) 12:26:49 435.215
Gurwin Techsat 1B 22 Dec 12:18:08 12:19:35 11° 54° (NE) 12:21:03 435.225
BEESAT 2 22 Dec 12:19:37 12:22:37 20° 112° (ESE) 12:25:39 435.950
TISAT 1 22 Dec 12:31:08 12:35:22 70° 102° (ESE) 12:39:35 437.305
SWISSCUBE 22 Dec 12:33:51 12:36:02 13° 89° (E) 12:38:12 437.505
VELOX 1 22 Dec 12:34:39 12:36:58 14° 299° (WNW) 12:39:18 145.980
ITUPSAT 1 22 Dec 12:35:24 12:37:15 12° 88° (E) 12:39:05 437.325
50 SAT 22 Dec 12:35:57 12:37:52 13° 298° (WNW) 12:39:48 437.505
SPROUT 22 Dec 12:40:34 12:44:53 83° 103° (ESE) 12:49:12 437.525
RS-15 22 Dec 12:42:12 12:53:07 76° 308° (NW) 13:04:12 29.354- 29.394
ESTCUBE 1 22 Dec 12:42:56 12:46:36 25° 294° (WNW) 12:50:15 437.505/2401.250
BEESAT 22 Dec 12:57:20 13:00:55 21° 93° (E) 13:04:29 436.000
AO-7 22 Dec 13:02:08 13:06:22 15° 42° (NE) 13:10:36 29.400- 29.500
ISS 22 Dec 13:14:32 13:17:42 45° 142° (SE) 13:20:53 145.825
BEESAT 3 22 Dec 13:14:40 13:18:46 80° 123° (ESE) 13:22:56 437.485
CUBEBUG 1 22 Dec 13:18:26 13:20:09 12° 300° (WNW) 13:21:52 437.445
Oscar 19 22 Dec 13:27:20 13:32:18 49° 260° (W) 13:37:20 437.125/150
PCSat 22 Dec 13:31:17 13:36:36 61° 116° (ESE) 13:41:57 145.827
AIST 2 22 Dec 13:32:33 13:36:40 51° 119° (ESE) 13:40:51 435.215
ITAMSAT 1 22 Dec 13:47:03 13:52:15 83° 256° (WSW) 13:57:27 435.822/435.867
Gurwin Techsat 1B 22 Dec 13:53:19 13:58:36 71° 73° (ENE) 14:03:54 435.225
BEESAT 2 22 Dec 13:56:34 14:00:33 46° 310° (NW) 14:04:36 435.950
HORYU 2 22 Dec 14:01:36 14:05:34 32° 68° (ENE) 14:09:34 437.375
TISAT 1 22 Dec 14:08:46 14:10:39 13° 299° (WNW) 14:12:31 437.305
SWISSCUBE 22 Dec 14:09:39 14:14:25 73° 286° (WNW) 14:19:09 437.505
ITUPSAT 1 22 Dec 14:10:55 14:15:43 78° 286° (WNW) 14:20:27 437.325
GONETS M04 22 Dec 14:15:51 14:18:12 11° 49° (NE) 14:20:33
SPROUT 22 Dec 14:19:03 14:20:20 11° 300° (WNW) 14:21:36 437.525
AUBIESAT-1 22 Dec 14:22:28 14:26:33 41° 103° (ESE) 14:30:16 437.475
BEESAT 22 Dec 14:34:26 14:38:59 46° 290° (WNW) 14:43:30 436.000
JAS-2 22 Dec 14:49:07 14:54:09 21° 58° (ENE) 14:58:51 435.910
AO-7 22 Dec 14:49:19 14:57:22 57° 64° (ENE) 15:05:29 29.400- 29.500
M-CUBED/EXP-1 PRIME 22 Dec 14:49:26 14:53:50 88° 287° (WNW) 14:57:48 437.505
ISS 22 Dec 14:51:16 14:54:21 35° 341° (NNW) 14:57:26 145.825
BEESAT 3 22 Dec 14:54:49 14:57:29 16° 323° (NW) 15:00:10 437.485
STARS 22 Dec 14:58:01 15:02:21 49° 100° (E) 15:06:39 437.465
RS-15 22 Dec 14:58:12 15:07:37 32° 337° (NNW) 15:17:16 29.354- 29.394
KKS-1 22 Dec 15:05:56 15:10:27 88° 104° (ESE) 15:14:56 437.445
AIST 2 22 Dec 15:12:10 15:15:34 23° 319° (NW) 15:19:01 435.215
PCSat 22 Dec 15:15:56 15:20:25 26° 316° (NW) 15:24:55 145.827
ITAMSAT 1 22 Dec 15:31:44 15:32:31 10° 273° (W) 15:33:17 435.822/435.867
Gurwin Techsat 1B 22 Dec 15:35:54 15:39:05 16° 270° (W) 15:42:17 435.225
HORYU 2 22 Dec 15:38:27 15:42:14 27° 265° (W) 15:46:04 437.375
ITUPSAT 1 22 Dec 15:51:48 15:52:46 11° 304° (NW) 15:53:44 437.325
CUTE-I 22 Dec 15:55:31 15:56:50 11° 54° (NE) 15:58:08 437.470
AUBIESAT-1 22 Dec 15:57:59 16:01:11 21° 303° (WNW) 16:04:12 437.475
GONETS M04 22 Dec 16:09:01 16:17:34 53° 74° (ENE) 16:25:59
AIST 1 22 Dec 16:20:37 16:24:57 65° 96° (E) 16:29:16
M-CUBED/EXP-1 PRIME 22 Dec 16:26:41 16:28:01 11° 309° (NW) 16:29:20 437.505
ISS 22 Dec 16:28:53 16:31:33 22° 1° (N) 16:34:13 145.825
MOZHAYETS 4 22 Dec 16:30:08 16:33:57 25° 94° (E) 16:37:42
JAS-2 22 Dec 16:30:52 16:38:29 90° 255° (WSW) 16:45:21 435.910
STARS 22 Dec 16:35:24 16:38:28 19° 297° (WNW) 16:41:32 437.465
AO-7 22 Dec 16:43:00 16:50:27 36° 263° (W) 16:58:00 29.400- 29.500
KKS-1 22 Dec 16:44:59 16:46:24 11° 302° (WNW) 16:47:48 437.445
Cubesat XI-IV 22 Dec 16:58:31 17:03:22 37° 67° (ENE) 17:08:14 437.490
RS-15 22 Dec 17:15:31 17:24:33 27° 12° (NNE) 17:33:50 29.354- 29.394
CUTE-I 22 Dec 17:30:39 17:35:55 69° 73° (ENE) 17:41:13 437.470
CUBESAT XI-V 22 Dec 17:59:47 18:02:39 16° 90° (E) 18:05:29 437.345
AIST 1 22 Dec 18:01:07 18:03:05 13° 294° (WNW) 18:05:03
HO-68 22 Dec 18:04:04 18:07:19 14° 47° (NE) 18:10:33 435.675
PRISM 22 Dec 18:04:37 18:08:22 32° 97° (E) 18:12:04 437.425
ISS 22 Dec 18:05:38 18:08:45 38° 21° (NNE) 18:11:50 145.825
GONETS M04 22 Dec 18:06:20 18:14:04 37° 276° (W) 18:21:43
MOZHAYETS 4 22 Dec 18:07:01 18:11:15 36° 291° (WNW) 18:15:27
MaSat-1 22 Dec 18:08:43 18:10:57 35° 246° (WSW) 18:13:18 437.345
JAS-2 22 Dec 18:19:23 18:24:09 18° 271° (W) 18:28:42 435.910
DANDE 22 Dec 18:36:18 18:41:23 18° 60° (ENE) 18:46:51 436.750
Cubesat XI-IV 22 Dec 18:38:49 18:43:30 31° 264° (W) 18:48:12 437.490
CUTE 1.7 + AOD 2 22 Dec 18:54:02 18:54:40 10° 59° (ENE) 18:55:17 437.475
STRAND 1 22 Dec 19:00:03 19:05:02 52° 100° (E) 19:09:59 437.568
CUTE-I 22 Dec 19:13:13 19:16:30 16° 270° (W) 19:19:48 437.470
